Powrót do katalogu

CZ-6A DEB

AktywnySSO
NORAD 55874·DEBRIS·🇨🇳 China

Wystrzelony Nov 11, 2022 z Taiyuan Satellite Launch Center

Loading…

Następne Przeloty (najbliższe 24 godziny)

TLE

ŚwieżeSource: Space-Track

Epoka: Sep 14, 2026, 10:08 UTC

1 55874U 22151ZW  26257.42239613  .00001904  00000-0  98865-3 0  9995
2 55874  98.8381 251.2187 0066756  88.0326 272.8490 14.14784441185421

Śledź CZ-6A DEB w czasie rzeczywistym z AllMySat

Download on the App Store